This is the latest recevied weather packets stored in our database for station/object W2EH. If no packets are shown the sender has not sent any weather packets the latest 10 day(s).
| Time | Temp. | Humidity | Pressure | Rain* | Wind** | Luminosity | Snow |
|---|---|---|---|---|---|---|---|
| 1777245196 | 28.89° C | 69% | 1005.6 hPa | 0 mm | - | 90 W/m² | - |
| 1777244892 | 28.89° C | 68% | 1005.6 hPa | 0 mm | - | 65 W/m² | - |
| 1777244588 | 28.89° C | 68% | 1005.5 hPa | 0 mm | - | 27 W/m² | - |
| 1777244284 | 28.89° C | 67% | 1005.3 hPa | 0 mm | - | 74 W/m² | - |
| 1777243982 | 28.89° C | 69% | 1005.2 hPa | 0 mm | - | 146 W/m² | - |
| 1777243678 | 29.44° C | 67% | 1005.4 hPa | 0 mm | - | 54 W/m² | - |
| 1777243376 | 28.89° C | 69% | 1005.2 hPa | 0 mm | - | 144 W/m² | - |
| 1777243071 | 29.44° C | 67% | 1005 hPa | 0 mm | - | 63 W/m² | - |
| 1777242768 | 29.44° C | 66% | 1004.9 hPa | 0 mm | - | 92 W/m² | - |
| 1777242464 | 29.44° C | 67% | 1005 hPa | 0 mm | - | 107 W/m² | - |
| 1777242161 | 29.44° C | 67% | 1004.8 hPa | 0 mm | - | 107 W/m² | - |
| 1777241858 | 29.44° C | 68% | 1004.9 hPa | 0 mm | - | 253 W/m² | - |
| 1777241556 | 29.44° C | 69% | 1005 hPa | 0 mm | - | 263 W/m² | - |
| 1777241253 | 28.89° C | 69% | 1005.2 hPa | 0 mm | - | 178 W/m² | - |
| 1777240950 | 28.89° C | 67% | 1005.6 hPa | 0 mm | - | 117 W/m² | - |
| 1777240648 | 28.89° C | 68% | 1005.5 hPa | 0 mm | - | 143 W/m² | - |
| 1777240346 | 28.89° C | 68% | 1005.6 hPa | 0 mm | - | 252 W/m² | - |
| 1777240043 | 28.89° C | 69% | 1005.1 hPa | 0 mm | - | 195 W/m² | - |
| 1777239741 | 28.89° C | 68% | 1005.5 hPa | 0 mm | - | 176 W/m² | - |
| 1777239437 | 28.89° C | 68% | 1005.5 hPa | 0 mm | - | 153 W/m² | - |
| 1777239134 | 28.89° C | 67% | 1005.6 hPa | 0 mm | - | 112 W/m² | - |
| 1777238831 | 28.89° C | 66% | 1005.7 hPa | 0 mm | - | 127 W/m² | - |
| 1777238529 | 29.44° C | 66% | 1005.7 hPa | 0 mm | - | 149 W/m² | - |
| 1777238224 | 30° C | 65% | 1006 hPa | 0 mm | - | 83 W/m² | - |
| 1777237921 | 30° C | 65% | 1006.2 hPa | 0 mm | - | 349 W/m² | - |
* Rain latest hour (hover to see other rain measurements)
** Current wind speed in m/s (hover to see current wind gust speed)